Weather History for KBQK - May, 2014

Change the Weather History Date:

Monday, May 26, 2014

  Actual Average Record
Temperature  
Mean Temperature 76 °F -  
Max Temperature 82 °F 86 °F 99 °F (1953)
Min Temperature 69 °F 67 °F 52 °F (1979)
Cooling Degree Days 10    
Growing Degree Days 26 (Base 50)    
Moisture  
Dew Point 70 °F    
Average Humidity 82    
Maximum Humidity 94    
Minimum Humidity 66    
Precipitation  
Precipitation 0.00 in - - ()
Sea Level Pressure  
Sea Level Pressure 30.19 in    
Wind  
Wind Speed 4 mph (SE)    
Max Wind Speed 12 mph    
Max Gust Speed -    
Visibility 10 miles    
Events Thunderstorm    
Averages and records for this station are not official NWS values.
T = Trace of Precipitation, MM = Missing Value Source: NWS Daily Summary

Daily Weather History Graph

Daily Weather History Graph

Search for Another Location

Airport or City:

Trip Planner

Search our weather history database for the weather conditions in past years. The results will help you decide how hot, cold, wet, or windy it might be!

Date:

Astronomy

May. 26, 2014 Rise Set
Actual Time 6:24 AM EDT 8:21 PM EDT
Civil Twilight 5:57 AM EDT 8:49 PM EDT
Nautical Twilight 5:24 AM EDT 9:22 PM EDT
Astronomical Twilight 4:48 AM EDT 9:57 PM EDT
Moon 4:55 AM EDT (5/26) 6:30 PM EDT (5/26)
Length of Visible Light 14h 52m
Length of Day
13h 57m
Waning Crescent, 5% of the Moon is Illuminated
May 26
Waning Crescent
May 28
New
Jun 5
First Quarter
Jun 13
Full
Jun 19
Last Quarter

Hourly Weather History & Observations

Time (EDT) Temp. Heat Index Dew Point Humidity Pressure Visibility Wind Dir Wind Speed Gust Speed Precip Events Conditions
12:10 AM 75.2 °F - 68.0 °F 78% 30.18 in 10.0 mi SSE 4.6 mph - N/A   Clear
12:30 AM 75.2 °F - 68.0 °F 78% 30.17 in 10.0 mi ESE 5.8 mph - N/A   Clear
12:50 AM 73.4 °F - 68.0 °F 83% 30.17 in 10.0 mi ESE 4.6 mph - N/A   Clear
1:10 AM 73.4 °F - 68.0 °F 83% 30.17 in 10.0 mi East 3.5 mph - N/A   Clear
1:30 AM 73.4 °F - 68.0 °F 83% 30.17 in 10.0 mi ENE 5.8 mph - N/A   Clear
1:50 AM 71.6 °F - 68.0 °F 88% 30.18 in 10.0 mi ENE 3.5 mph - N/A   Clear
2:10 AM 71.6 °F - 68.0 °F 88% 30.19 in 10.0 mi North 5.8 mph - N/A   Clear
2:30 AM 71.6 °F - 68.0 °F 88% 30.19 in 10.0 mi North 4.6 mph - N/A Thunderstorm Mostly Cloudy
2:50 AM 71.6 °F - 68.0 °F 88% 30.18 in 10.0 mi North 4.6 mph - N/A   Scattered Clouds
3:10 AM 71.6 °F - 68.0 °F 88% 30.18 in 10.0 mi North 4.6 mph - N/A   Mostly Cloudy
3:30 AM 71.6 °F - 68.0 °F 88% 30.19 in 10.0 mi NNW 4.6 mph - N/A   Overcast
3:50 AM 71.6 °F - 68.0 °F 88% 30.17 in 10.0 mi Calm Calm - N/A   Mostly Cloudy
4:10 AM 71.6 °F - 68.0 °F 88% 30.18 in 10.0 mi Calm Calm - N/A   Scattered Clouds
4:30 AM 71.6 °F - 68.0 °F 88% 30.17 in 10.0 mi Calm Calm - N/A   Scattered Clouds
4:50 AM 71.6 °F - 68.0 °F 88% 30.17 in 10.0 mi Calm Calm - N/A   Scattered Clouds
5:10 AM 69.8 °F - 68.0 °F 94% 30.16 in 10.0 mi Calm Calm - N/A   Clear
5:30 AM 71.6 °F - 68.0 °F 88% 30.16 in 10.0 mi Calm Calm - N/A   Clear
5:50 AM 69.8 °F - 66.2 °F 88% 30.16 in 10.0 mi Calm Calm - N/A   Clear
6:10 AM 71.6 °F - 68.0 °F 88% 30.16 in 10.0 mi Calm Calm - N/A   Clear
6:30 AM 71.6 °F - 68.0 °F 88% 30.16 in 10.0 mi ESE 4.6 mph - N/A   Clear
6:50 AM 71.6 °F - 69.8 °F 94% 30.17 in 10.0 mi Calm Calm - N/A   Clear
7:10 AM 71.6 °F - 69.8 °F 94% 30.18 in 10.0 mi Calm Calm - N/A   Scattered Clouds
7:30 AM 71.6 °F - 68.0 °F 88% 30.19 in 10.0 mi Calm Calm - N/A   Mostly Cloudy
7:50 AM 71.6 °F - 69.8 °F 94% 30.20 in 10.0 mi Calm Calm - N/A   Mostly Cloudy
8:10 AM 73.4 °F - 69.8 °F 88% 30.21 in 10.0 mi Calm Calm - N/A   Scattered Clouds
8:30 AM 73.4 °F - 71.6 °F 94% 30.21 in 10.0 mi Calm Calm - N/A   Mostly Cloudy
8:50 AM 77.0 °F - 71.6 °F 83% 30.22 in 10.0 mi SE 4.6 mph - N/A   Mostly Cloudy
9:10 AM 78.8 °F - 71.6 °F 78% 30.22 in 10.0 mi SSE 5.8 mph - N/A   Mostly Cloudy
9:30 AM 78.8 °F - 69.8 °F 74% 30.23 in 10.0 mi SE 3.5 mph - N/A   Scattered Clouds
9:50 AM 80.6 °F 83.9 °F 69.8 °F 70% 30.24 in 10.0 mi SSE 4.6 mph - N/A   Mostly Cloudy
10:10 AM 80.6 °F 84.6 °F 71.6 °F 74% 30.24 in 10.0 mi SE 6.9 mph - N/A   Mostly Cloudy
10:30 AM 80.6 °F 83.9 °F 69.8 °F 70% 30.24 in 10.0 mi SSE 6.9 mph - N/A   Overcast
10:50 AM 80.6 °F 83.9 °F 69.8 °F 70% 30.24 in 10.0 mi SSE 8.1 mph - N/A Thunderstorm Overcast
11:10 AM 82.4 °F 86.3 °F 69.8 °F 66% 30.24 in 10.0 mi SE 9.2 mph - N/A Thunderstorm Overcast
11:30 AM 78.8 °F - 71.6 °F 78% 30.24 in 10.0 mi South 6.9 mph - N/A Thunderstorm Overcast
11:50 AM 78.8 °F - 71.6 °F 78% 30.23 in 10.0 mi SSE 6.9 mph - N/A Thunderstorm Thunderstorm
12:30 PM 78.8 °F - 69.8 °F 74% 30.23 in 10.0 mi SE 6.9 mph - N/A   Clear
12:50 PM 77.0 °F - 69.8 °F 78% 30.23 in 10.0 mi SE 6.9 mph - N/A Thunderstorm Mostly Cloudy
1:10 PM 77.0 °F - 71.6 °F 83% 30.24 in 10.0 mi SSE 5.8 mph - N/A Thunderstorm Thunderstorm
1:30 PM 77.0 °F - 71.6 °F 83% 30.24 in 10.0 mi Calm Calm - N/A Thunderstorm Overcast
1:50 PM 77.0 °F - 71.6 °F 83% 30.22 in 10.0 mi SE 5.8 mph - N/A Thunderstorm Thunderstorm
2:10 PM 77.0 °F - 71.6 °F 83% 30.24 in 10.0 mi Calm Calm - N/A Thunderstorm Thunderstorm
2:30 PM 77.0 °F - 71.6 °F 83% 30.23 in 7.0 mi Calm Calm - N/A   Overcast
2:50 PM 75.2 °F - 71.6 °F 89% 30.22 in 7.0 mi Calm Calm - N/A   Overcast
3:10 PM 77.0 °F - 73.4 °F 89% 30.21 in 10.0 mi ESE 4.6 mph - N/A   Mostly Cloudy
3:30 PM 78.8 °F - 73.4 °F 83% 30.21 in 10.0 mi SE 6.9 mph - N/A   Scattered Clouds
3:50 PM 78.8 °F - 73.4 °F 83% 30.20 in 10.0 mi ESE 4.6 mph - N/A   Mostly Cloudy
4:10 PM 80.6 °F 84.6 °F 71.6 °F 74% 30.19 in 10.0 mi SSE 6.9 mph - N/A   Mostly Cloudy
4:30 PM 80.6 °F 83.9 °F 69.8 °F 70% 30.18 in 10.0 mi SSE 8.1 mph - N/A   Scattered Clouds
4:50 PM 80.6 °F 83.9 °F 69.8 °F 70% 30.17 in 10.0 mi SE 6.9 mph - N/A   Scattered Clouds
5:10 PM 80.6 °F 83.9 °F 69.8 °F 70% 30.16 in 10.0 mi SSE 9.2 mph - N/A   Scattered Clouds
5:30 PM 78.8 °F - 69.8 °F 74% 30.15 in 10.0 mi SE 9.2 mph - N/A   Scattered Clouds
5:50 PM 80.6 °F 83.9 °F 69.8 °F 70% 30.14 in 10.0 mi SE 9.2 mph - N/A   Clear
6:10 PM 80.6 °F 83.9 °F 69.8 °F 70% 30.14 in 10.0 mi SE 6.9 mph - N/A   Clear
6:30 PM 78.8 °F - 69.8 °F 74% 30.15 in 10.0 mi SSE 6.9 mph - N/A   Clear
6:50 PM 78.8 °F - 69.8 °F 74% 30.16 in 10.0 mi SSE 11.5 mph - N/A   Clear
7:10 PM 78.8 °F - 69.8 °F 74% 30.16 in 10.0 mi SSE 10.4 mph - N/A   Scattered Clouds
7:30 PM 78.8 °F - 68.0 °F 69% 30.17 in 10.0 mi SSE 10.4 mph - N/A   Scattered Clouds
7:50 PM 77.0 °F - 68.0 °F 74% 30.17 in 10.0 mi SSE 9.2 mph - N/A   Clear
8:10 PM 77.0 °F - 68.0 °F 74% 30.18 in 10.0 mi SSE 5.8 mph - N/A   Clear
8:30 PM 77.0 °F - 68.0 °F 74% 30.19 in 10.0 mi SSE 4.6 mph - N/A   Clear
8:50 PM 77.0 °F - 69.8 °F 78% 30.19 in 10.0 mi SSE 5.8 mph - N/A   Clear
9:10 PM 75.2 °F - 69.8 °F 83% 30.19 in 10.0 mi Calm Calm - N/A   Clear
9:30 PM 75.2 °F - 69.8 °F 83% 30.19 in 10.0 mi Calm Calm - N/A   Clear
9:50 PM 75.2 °F - 68.0 °F 78% 30.20 in 10.0 mi South 3.5 mph - N/A   Clear
10:10 PM 75.2 °F - 69.8 °F 83% 30.20 in 10.0 mi Calm Calm - N/A   Clear
10:30 PM 73.4 °F - 69.8 °F 88% 30.21 in 10.0 mi Calm Calm - N/A   Clear
10:50 PM 73.4 °F - 69.8 °F 88% 30.20 in 10.0 mi Calm Calm - N/A   Clear
11:10 PM 73.4 °F - 69.8 °F 88% 30.20 in 10.0 mi Calm Calm - N/A   Clear
11:30 PM 73.4 °F - 69.8 °F 88% 30.20 in 10.0 mi Calm Calm - N/A   Clear
11:50 PM 73.4 °F - 69.8 °F 88% 30.19 in 10.0 mi Calm Calm - N/A   Clear